Time,TemperatureF,DewpointF,PressureIn,WindDirection,WindDirectionDegrees,WindSpeedMPH,WindSpeedGustMPH,Humidity,HourlyPrecipIn,Conditions,Clouds,dailyrainin,SoftwareType,DateUTC
2013-05-02 00:02:00,69.0,59.0,30.06,SSW,207,0.0,1.0,70,0.00,,,0.00,,2013-05-02 05:02:00,
2013-05-02 00:12:00,69.0,59.0,30.06,SSW,207,0.0,1.0,70,0.00,,,0.00,,2013-05-02 05:12:00,
2013-05-02 00:22:00,67.0,59.0,30.08,NW,308,0.0,1.0,75,0.00,,,0.00,,2013-05-02 05:22:00,
2013-05-02 00:32:00,61.0,49.0,30.10,NE,41,3.0,10.0,64,0.00,,,0.00,,2013-05-02 05:32:00,
2013-05-02 00:42:00,61.0,49.0,30.10,NE,41,3.0,10.0,64,0.00,,,0.00,,2013-05-02 05:42:00,
2013-05-02 00:52:00,58.0,47.0,30.12,WNW,303,3.0,13.0,66,0.00,,,0.00,,2013-05-02 05:52:00,
2013-05-02 01:01:00,57.0,47.0,30.13,NNE,32,1.0,7.0,68,0.00,,,0.00,,2013-05-02 06:01:00,
2013-05-02 01:12:00,57.0,47.0,30.13,NNE,32,1.0,7.0,68,0.00,,,0.00,,2013-05-02 06:12:00,
2013-05-02 01:21:00,56.0,46.0,30.13,NNE,12,4.0,11.0,68,0.00,,,0.00,,2013-05-02 06:21:00,
2013-05-02 01:31:00,55.0,45.0,30.14,NNE,12,2.0,9.0,69,0.00,,,0.00,,2013-05-02 06:31:00,
2013-05-02 01:42:00,55.0,45.0,30.14,NNE,12,2.0,9.0,69,0.00,,,0.00,,2013-05-02 06:42:00,
2013-05-02 01:52:00,54.0,44.0,30.14,NW,304,1.0,6.0,70,0.00,,,0.00,,2013-05-02 06:52:00,
2013-05-02 02:02:00,53.0,44.0,30.15,NNW,330,2.0,12.0,71,0.00,,,0.00,,2013-05-02 07:02:00,
2013-05-02 02:11:00,53.0,44.0,30.15,NNW,330,2.0,12.0,71,0.00,,,0.00,,2013-05-02 07:11:00,
2013-05-02 02:21:00,53.0,44.0,30.16,NW,326,1.0,12.0,72,0.00,,,0.00,,2013-05-02 07:21:00,
2013-05-02 02:32:00,52.0,44.0,30.17,NNW,347,0.0,7.0,73,0.00,,,0.00,,2013-05-02 07:32:00,
2013-05-02 02:42:00,52.0,44.0,30.17,NNW,347,0.0,7.0,73,0.00,,,0.00,,2013-05-02 07:42:00,
2013-05-02 02:52:00,51.0,43.0,30.17,NNE,20,3.0,9.0,74,0.00,,,0.00,,2013-05-02 07:52:00,
2013-05-02 03:02:00,51.0,43.0,30.18,NNE,28,1.0,9.0,75,0.00,,,0.00,,2013-05-02 08:02:00,
2013-05-02 03:11:00,51.0,43.0,30.18,NNE,28,1.0,9.0,75,0.00,,,0.00,,2013-05-02 08:11:00,
2013-05-02 03:22:00,50.0,42.0,30.19,North,351,0.0,9.0,75,0.00,,,0.00,,2013-05-02 08:22:00,
2013-05-02 03:32:00,50.0,42.0,30.20,North,1,3.0,8.0,75,0.00,,,0.00,,2013-05-02 08:32:00,
2013-05-02 03:42:00,50.0,42.0,30.20,North,1,3.0,8.0,75,0.00,,,0.00,,2013-05-02 08:42:00,
2013-05-02 03:52:00,50.0,42.0,30.20,NNE,13,0.0,9.0,74,0.00,,,0.00,,2013-05-02 08:52:00,
2013-05-02 04:02:00,49.0,41.0,30.21,WNW,297,3.0,10.0,74,0.00,,,0.00,,2013-05-02 09:02:00,
2013-05-02 04:11:00,49.0,41.0,30.21,WNW,297,3.0,10.0,74,0.00,,,0.00,,2013-05-02 09:11:00,
2013-05-02 04:21:00,48.0,41.0,30.21,NNE,30,1.0,9.0,76,0.00,,,0.00,,2013-05-02 09:21:00,
2013-05-02 04:32:00,48.0,41.0,30.21,WNW,298,2.0,11.0,76,0.00,,,0.00,,2013-05-02 09:32:00,
2013-05-02 04:42:00,48.0,41.0,30.21,WNW,298,2.0,11.0,76,0.00,,,0.00,,2013-05-02 09:42:00,
2013-05-02 04:52:00,48.0,41.0,30.22,NW,322,2.0,6.0,76,0.00,,,0.00,,2013-05-02 09:52:00,
2013-05-02 05:02:00,47.0,40.0,30.23,North,360,4.0,13.0,76,0.00,,,0.00,,2013-05-02 10:02:00,
2013-05-02 05:12:00,47.0,40.0,30.23,North,360,4.0,13.0,76,0.00,,,0.00,,2013-05-02 10:12:00,
2013-05-02 05:22:00,47.0,40.0,30.24,North,11,4.0,11.0,76,0.00,,,0.00,,2013-05-02 10:22:00,
2013-05-02 05:33:00,47.0,40.0,30.24,WNW,300,2.0,10.0,77,0.00,,,0.00,,2013-05-02 10:33:00,
2013-05-02 05:42:00,47.0,40.0,30.24,WNW,300,2.0,10.0,77,0.00,,,0.00,,2013-05-02 10:42:00,
2013-05-02 05:53:00,46.0,39.0,30.24,WNW,290,5.0,12.0,76,0.00,,,0.00,,2013-05-02 10:53:00,
2013-05-02 06:02:00,46.0,39.0,30.26,NW,326,3.0,10.0,77,0.00,,,0.00,,2013-05-02 11:02:00,
2013-05-02 06:12:00,46.0,39.0,30.26,NW,326,3.0,10.0,77,0.00,,,0.00,,2013-05-02 11:12:00,
2013-05-02 06:22:00,46.0,39.0,30.25,NNW,342,3.0,9.0,77,0.00,,,0.00,,2013-05-02 11:22:00,
2013-05-02 06:32:00,46.0,39.0,30.24,North,358,5.0,12.0,77,0.00,,,0.00,,2013-05-02 11:32:00,
2013-05-02 06:42:00,46.0,39.0,30.24,North,358,5.0,12.0,77,0.00,,,0.00,,2013-05-02 11:42:00,
2013-05-02 06:52:00,46.0,40.0,30.26,NW,308,2.0,12.0,78,0.00,,,0.00,,2013-05-02 11:52:00,
2013-05-02 07:01:00,46.0,40.0,30.27,NNW,342,2.0,7.0,78,0.00,,,0.00,,2013-05-02 12:01:00,
2013-05-02 07:11:00,46.0,40.0,30.27,NNW,342,2.0,7.0,78,0.00,,,0.00,,2013-05-02 12:11:00,
2013-05-02 07:21:00,46.0,40.0,30.28,NE,39,3.0,9.0,78,0.00,,,0.00,,2013-05-02 12:21:00,
2013-05-02 07:32:00,46.0,40.0,30.29,NW,308,2.0,14.0,78,0.00,,,0.00,,2013-05-02 12:32:00,
2013-05-02 07:42:00,46.0,40.0,30.29,NW,308,2.0,14.0,78,0.00,,,0.00,,2013-05-02 12:42:00,
2013-05-02 07:52:00,45.0,39.0,30.29,North,11,3.0,8.0,79,0.00,,,0.00,,2013-05-02 12:52:00,
2013-05-02 08:01:00,46.0,40.0,30.31,North,9,4.0,9.0,79,0.00,,,0.00,,2013-05-02 13:01:00,
2013-05-02 08:11:00,46.0,40.0,30.31,North,9,4.0,9.0,79,0.00,,,0.00,,2013-05-02 13:11:00,
2013-05-02 08:21:00,45.0,40.0,30.31,North,4,3.0,8.0,81,0.00,,,0.00,,2013-05-02 13:21:00,
2013-05-02 08:31:00,45.0,40.0,30.32,NNW,332,2.0,8.0,83,0.00,,,0.00,,2013-05-02 13:31:00,
2013-05-02 08:42:00,45.0,40.0,30.32,NNW,332,2.0,8.0,83,0.00,,,0.00,,2013-05-02 13:42:00,
2013-05-02 08:52:00,45.0,40.0,30.33,North,356,5.0,13.0,84,0.00,,,0.00,,2013-05-02 13:52:00,
2013-05-02 09:02:00,45.0,40.0,30.33,North,359,4.0,9.0,84,0.00,,,0.00,,2013-05-02 14:02:00,
2013-05-02 09:11:00,45.0,40.0,30.33,North,359,4.0,9.0,84,0.00,,,0.00,,2013-05-02 14:11:00,
2013-05-02 09:22:00,45.0,41.0,30.32,NNW,338,4.0,11.0,85,0.00,,,0.00,,2013-05-02 14:22:00,
2013-05-02 09:32:00,45.0,40.0,30.32,NNW,340,5.0,13.0,83,0.00,,,0.00,,2013-05-02 14:32:00,
2013-05-02 09:42:00,45.0,40.0,30.32,NNW,340,5.0,13.0,83,0.00,,,0.00,,2013-05-02 14:42:00,
2013-05-02 09:52:00,45.0,40.0,30.32,NNW,341,5.0,14.0,83,0.00,,,0.00,,2013-05-02 14:52:00,
2013-05-02 10:02:00,45.0,40.0,30.32,NNE,28,1.0,18.0,83,0.00,,,0.00,,2013-05-02 15:02:00,
2013-05-02 10:12:00,45.0,40.0,30.32,NNE,28,1.0,18.0,83,0.00,,,0.00,,2013-05-02 15:12:00,
2013-05-02 10:22:00,45.0,41.0,30.32,NW,307,3.0,11.0,85,0.00,,,0.00,,2013-05-02 15:22:00,
2013-05-02 10:33:00,44.0,40.0,30.32,North,5,1.0,8.0,87,0.00,,,0.00,,2013-05-02 15:33:00,
2013-05-02 10:43:00,44.0,40.0,30.32,North,5,1.0,8.0,87,0.00,,,0.00,,2013-05-02 15:43:00,
2013-05-02 11:02:00,44.0,39.0,30.33,NNW,342,3.0,14.0,84,0.00,,,0.00,,2013-05-02 16:02:00,
2013-05-02 11:13:00,44.0,39.0,30.33,NNW,342,3.0,14.0,84,0.00,,,0.00,,2013-05-02 16:13:00,
2013-05-02 11:22:00,44.0,39.0,30.35,North,360,6.0,13.0,82,0.00,,,0.00,,2013-05-02 16:22:00,
2013-05-02 11:32:00,44.0,39.0,30.36,WNW,295,1.0,12.0,83,0.00,,,0.00,,2013-05-02 16:32:00,
2013-05-02 11:43:00,44.0,39.0,30.36,WNW,295,1.0,12.0,83,0.00,,,0.00,,2013-05-02 16:43:00,
2013-05-02 11:52:00,44.0,39.0,30.37,NNW,340,2.0,8.0,84,0.00,,,0.00,,2013-05-02 16:52:00,
2013-05-02 12:02:00,43.0,38.0,30.37,NW,309,3.0,12.0,84,0.00,,,0.00,,2013-05-02 17:02:00,
2013-05-02 12:12:00,43.0,38.0,30.37,NW,309,3.0,12.0,84,0.00,,,0.00,,2013-05-02 17:12:00,
2013-05-02 12:22:00,43.0,38.0,30.37,WNW,291,3.0,10.0,84,0.00,,,0.00,,2013-05-02 17:22:00,
2013-05-02 12:31:00,43.0,38.0,30.37,NNW,337,4.0,14.0,82,0.00,,,0.00,,2013-05-02 17:31:00,
2013-05-02 12:42:00,43.0,38.0,30.37,NNW,337,4.0,14.0,82,0.00,,,0.00,,2013-05-02 17:42:00,
2013-05-02 12:52:00,43.0,38.0,30.37,North,360,4.0,16.0,83,0.00,,,0.00,,2013-05-02 17:52:00,
2013-05-02 13:01:00,43.0,38.0,30.37,NNE,33,3.0,8.0,83,0.00,,,0.00,,2013-05-02 18:01:00,
2013-05-02 13:11:00,43.0,38.0,30.37,NNE,33,3.0,8.0,83,0.00,,,0.00,,2013-05-02 18:11:00,
2013-05-02 13:21:00,43.0,38.0,30.37,NNW,330,4.0,14.0,81,0.00,,,0.00,,2013-05-02 18:21:00,
2013-05-02 13:31:00,43.0,37.0,30.37,NNW,334,3.0,11.0,80,0.00,,,0.00,,2013-05-02 18:31:00,
2013-05-02 13:41:00,43.0,37.0,30.37,NNW,334,3.0,11.0,80,0.00,,,0.00,,2013-05-02 18:41:00,
2013-05-02 13:52:00,42.0,36.0,30.38,NNE,23,4.0,13.0,80,0.00,,,0.00,,2013-05-02 18:52:00,
2013-05-02 14:01:00,42.0,38.0,30.36,NW,319,4.0,14.0,85,0.00,,,0.00,,2013-05-02 19:01:00,
2013-05-02 14:11:00,42.0,38.0,30.36,NW,319,4.0,14.0,85,0.00,,,0.00,,2013-05-02 19:11:00,
2013-05-02 14:21:00,41.0,38.0,30.37,NNW,341,2.0,13.0,88,0.02,,,0.02,,2013-05-02 19:21:00,
2013-05-02 14:32:00,40.0,37.0,30.37,NW,323,0.0,9.0,90,0.05,,,0.05,,2013-05-02 19:32:00,
2013-05-02 14:42:00,40.0,37.0,30.37,NW,323,0.0,9.0,90,0.05,,,0.05,,2013-05-02 19:42:00,
2013-05-02 14:52:00,40.0,37.0,30.40,NNW,333,4.0,12.0,90,0.07,,,0.07,,2013-05-02 19:52:00,
2013-05-02 15:02:00,40.0,38.0,30.39,NNE,33,3.0,16.0,91,0.08,,,0.08,,2013-05-02 20:02:00,
2013-05-02 15:11:00,40.0,38.0,30.39,NNE,33,3.0,16.0,91,0.08,,,0.08,,2013-05-02 20:11:00,
2013-05-02 15:22:00,40.0,37.0,30.39,North,354,1.0,15.0,90,0.06,,,0.08,,2013-05-02 20:22:00,
2013-05-02 15:32:00,40.0,37.0,30.39,NW,307,4.0,18.0,90,0.03,,,0.08,,2013-05-02 20:32:00,
2013-05-02 15:41:00,40.0,37.0,30.39,NW,307,4.0,18.0,90,0.03,,,0.08,,2013-05-02 20:41:00,
2013-05-02 15:52:00,40.0,37.0,30.39,NNE,30,4.0,9.0,89,0.01,,,0.08,,2013-05-02 20:52:00,
2013-05-02 16:01:00,40.0,37.0,30.40,North,11,1.0,11.0,89,0.00,,,0.08,,2013-05-02 21:01:00,
2013-05-02 16:11:00,40.0,37.0,30.40,North,11,1.0,11.0,89,0.00,,,0.08,,2013-05-02 21:11:00,
2013-05-02 16:21:00,40.0,36.0,30.39,NNW,330,7.0,17.0,87,0.00,,,0.08,,2013-05-02 21:21:00,
2013-05-02 16:33:00,39.0,35.0,30.38,NNW,333,7.0,24.0,86,0.00,,,0.08,,2013-05-02 21:33:00,
2013-05-02 16:42:00,39.0,35.0,30.38,NNW,333,7.0,24.0,86,0.00,,,0.08,,2013-05-02 21:42:00,
2013-05-02 16:53:00,39.0,35.0,30.39,North,9,9.0,15.0,85,0.00,,,0.08,,2013-05-02 21:53:00,
2013-05-02 17:02:00,39.0,35.0,30.40,NW,325,3.0,10.0,85,0.00,,,0.08,,2013-05-02 22:02:00,
2013-05-02 17:12:00,39.0,35.0,30.40,NW,325,3.0,10.0,85,0.00,,,0.08,,2013-05-02 22:12:00,
2013-05-02 17:22:00,39.0,36.0,30.40,NNW,345,3.0,15.0,88,0.02,,,0.10,,2013-05-02 22:22:00,
2013-05-02 17:32:00,38.0,36.0,30.40,NNE,12,4.0,15.0,91,0.07,,,0.15,,2013-05-02 22:32:00,
2013-05-02 17:42:00,38.0,36.0,30.40,NNE,12,4.0,15.0,91,0.07,,,0.15,,2013-05-02 22:42:00,
2013-05-02 17:52:00,38.0,36.0,30.40,NNW,334,7.0,12.0,91,0.09,,,0.17,,2013-05-02 22:52:00,
2013-05-02 18:02:00,38.0,36.0,30.40,NW,319,2.0,18.0,91,0.10,,,0.18,,2013-05-02 23:02:00,
2013-05-02 18:11:00,38.0,36.0,30.40,NW,319,2.0,18.0,91,0.10,,,0.18,,2013-05-02 23:11:00,
2013-05-02 18:22:00,38.0,36.0,30.41,NNE,18,2.0,11.0,92,0.08,,,0.18,,2013-05-02 23:22:00,
2013-05-02 18:32:00,38.0,36.0,30.42,NNE,13,3.0,13.0,91,0.03,,,0.18,,2013-05-02 23:32:00,
2013-05-02 18:42:00,38.0,36.0,30.42,NNE,13,3.0,13.0,91,0.03,,,0.18,,2013-05-02 23:42:00,
2013-05-02 18:52:00,38.0,36.0,30.42,WNW,300,3.0,18.0,91,0.01,,,0.18,,2013-05-02 23:52:00,
2013-05-02 19:01:00,37.0,35.0,30.42,NNE,12,4.0,17.0,91,0.01,,,0.19,,2013-05-03 00:01:00,
2013-05-02 19:11:00,37.0,35.0,30.42,NNE,12,4.0,17.0,91,0.01,,,0.19,,2013-05-03 00:11:00,
2013-05-02 19:21:00,37.0,35.0,30.41,NNW,343,2.0,17.0,92,0.01,,,0.19,,2013-05-03 00:21:00,
2013-05-02 19:31:00,37.0,35.0,30.42,NNW,335,7.0,17.0,92,0.02,,,0.20,,2013-05-03 00:31:00,
2013-05-02 19:41:00,37.0,35.0,30.42,NNW,335,7.0,17.0,92,0.02,,,0.20,,2013-05-03 00:41:00,
2013-05-02 19:52:00,36.0,34.0,30.43,North,4,5.0,12.0,91,0.02,,,0.20,,2013-05-03 00:52:00,
2013-05-02 20:01:00,36.0,34.0,30.44,WNW,293,6.0,14.0,92,0.02,,,0.21,,2013-05-03 01:01:00,
2013-05-02 20:11:00,36.0,34.0,30.44,WNW,293,6.0,14.0,92,0.02,,,0.21,,2013-05-03 01:11:00,
2013-05-02 20:21:00,36.0,34.0,30.45,North,352,1.0,12.0,92,0.02,,,0.21,,2013-05-03 01:21:00,
2013-05-02 20:31:00,35.0,33.0,30.44,NNW,334,3.0,10.0,93,0.03,,,0.23,,2013-05-03 01:31:00,
2013-05-02 20:42:00,35.0,33.0,30.44,NNW,334,3.0,10.0,93,0.03,,,0.23,,2013-05-03 01:42:00,
2013-05-02 20:52:00,35.0,33.0,30.44,NNW,341,3.0,11.0,93,0.04,,,0.24,,2013-05-03 01:52:00,
2013-05-02 21:01:00,35.0,33.0,30.45,NW,324,2.0,8.0,93,0.04,,,0.25,,2013-05-03 02:01:00,
2013-05-02 21:11:00,35.0,33.0,30.45,NW,324,2.0,8.0,93,0.04,,,0.25,,2013-05-03 02:11:00,
2013-05-02 21:21:00,36.0,34.0,30.45,North,356,1.0,6.0,94,0.04,,,0.26,,2013-05-03 02:21:00,
2013-05-02 21:32:00,36.0,34.0,30.45,NNW,338,4.0,11.0,94,0.04,,,0.27,,2013-05-03 02:32:00,
2013-05-02 21:42:00,36.0,34.0,30.45,NNW,338,4.0,11.0,94,0.04,,,0.27,,2013-05-03 02:42:00,
2013-05-02 21:52:00,35.0,33.0,30.46,NNW,345,5.0,18.0,93,0.04,,,0.28,,2013-05-03 02:52:00,
2013-05-02 22:01:00,35.0,33.0,30.45,NNE,23,3.0,17.0,93,0.04,,,0.28,,2013-05-03 03:01:00,
2013-05-02 22:11:00,35.0,33.0,30.45,NNE,23,3.0,17.0,93,0.04,,,0.28,,2013-05-03 03:11:00,
2013-05-02 22:21:00,35.0,33.0,30.46,North,5,2.0,6.0,93,0.03,,,0.28,,2013-05-03 03:21:00,
2013-05-02 22:33:00,35.0,33.0,30.45,NW,326,3.0,15.0,93,0.03,,,0.30,,2013-05-03 03:33:00,
2013-05-02 22:42:00,35.0,33.0,30.45,NW,326,3.0,15.0,93,0.03,,,0.30,,2013-05-03 03:42:00,
2013-05-02 22:53:00,35.0,33.0,30.46,NNE,23,3.0,14.0,93,0.02,,,0.30,,2013-05-03 03:53:00,
2013-05-02 23:03:00,35.0,33.0,30.47,NNW,341,2.0,10.0,93,0.02,,,0.31,,2013-05-03 04:03:00,
2013-05-02 23:12:00,35.0,33.0,30.47,NNW,341,2.0,10.0,93,0.02,,,0.31,,2013-05-03 04:12:00,
2013-05-02 23:22:00,35.0,33.0,30.45,NW,311,2.0,10.0,93,0.03,,,0.32,,2013-05-03 04:22:00,
2013-05-02 23:32:00,35.0,33.0,30.45,North,359,6.0,17.0,94,0.02,,,0.32,,2013-05-03 04:32:00,
2013-05-02 23:42:00,35.0,33.0,30.45,North,359,6.0,17.0,94,0.02,,,0.32,,2013-05-03 04:42:00,
2013-05-02 23:53:00,35.0,33.0,30.45,North,11,4.0,10.0,93,0.02,,,0.32,,2013-05-03 04:53:00,